• MPC Preparation (Info)

  • MPEC 2006-K67 : 2006 KY86

    The following Minor Planet Electronic Circular may be linked-to from your own Web pages, but must not otherwise be redistributed electronically.

    A form allowing access to any MPEC is at the bottom of this page.


    Read MPEC 2006-K66 Read MPEC 2006-K68


    M.P.E.C. 2006-K67                                Issued 2006 May 29, 17:46 UT
    
         The Minor Planet Electronic Circulars contain information on unusual
             minor planets and routine data on comets.  They are published
       on behalf of Commission 20 of the International Astronomical Union by the
              Minor Planet Center, Smithsonian Astrophysical Observatory,
                              Cambridge, MA 02138, U.S.A.
    
                      Supported in part by the Brinson Foundation
                      Supported in part by the TABASGO Foundation
                 Prepared using the Tamkin Foundation Computer Network
    
                                  MPC@CFA.HARVARD.EDU
              URL http://cfa-www.harvard.edu/iau/mpc.html  ISSN 1523-6714
    
                                       2006 KY86
    
    Observations:
         K06K86Y* C2006 05 26.38323 20 40 21.49 +13 21 51.8          17.8   EK067704
         K06K86Y  C2006 05 26.39499 20 40 13.80 +13 21 19.4          18.9   EK067704
         K06K86Y  C2006 05 26.40699 20 40 05.93 +13 20 46.4          18.3   EK067704
         K06K86Y  C2006 05 26.41886 20 39 58.12 +13 20 13.2          18.2   EK067704
         K06K86Y  C2006 05 28.08601 20 23 37.72 +12 04 39.4                 EK067J95
         K06K86Y  C2006 05 28.08734 20 23 36.95 +12 04 36.0                 EK067J95
         K06K86Y  C2006 05 28.08867 20 23 36.19 +12 04 33.0                 EK067J95
         K06K86Y  C2006 05 28.09475 20 23 32.79 +12 04 17.2          17.5 R EK067J95
         K06K86Y  C2006 05 28.24150 20 22 14.12 +11 58 03.5          17.7 R EK067932
         K06K86Y  C2006 05 28.24739 20 22 10.84 +11 57 48.6          17.7 R EK067932
         K06K86Y  C2006 05 28.26058 20 22 03.50 +11 57 15.0          17.6 R EK067932
         K06K86Y  C2006 05 28.29643 20 21 41.81 +11 56 52.2          17.7 R EK067I77
         K06K86Y  C2006 05 28.30172 20 21 38.83 +11 56 39.2          17.2 R EK067I77
         K06K86Y  C2006 05 28.30550 20 21 36.74 +11 56 29.1          17.1 R EK067I77
         K06K86Y 2C2006 05 28.33684 20 21 22.95 +11 54 07.0          17.1 R EK067H06
         K06K86Y 2C2006 05 28.34249 20 21 19.84 +11 53 52.3          17.3 R EK067H06
         K06K86Y 2C2006 05 28.34815 20 21 16.74 +11 53 37.5          17.0 R EK067H06
         K06K86Y  C2006 05 28.39381 20 20 51.41 +11 51 42.0          18.0   EK067704
         K06K86Y  C2006 05 28.39392 20 20 51.35 +11 51 41.3          17.3   EK067704
         K06K86Y  C2006 05 28.40539 20 20 44.96 +11 51 12.7          18.0   EK067704
         K06K86Y  C2006 05 28.40550 20 20 44.96 +11 51 12.5          17.7   EK067704
         K06K86Y  C2006 05 28.41691 20 20 38.45 +11 50 44.4          18.8   EK067704
         K06K86Y  C2006 05 28.41702 20 20 38.48 +11 50 43.2          18.2   EK067704
         K06K86Y  C2006 05 28.42842 20 20 32.16 +11 50 13.6          18.1   EK067704
         K06K86Y  C2006 05 29.37289 20 12 28.77 +11 10 40.9          17.9 R EK067734
         K06K86Y  C2006 05 29.37576 20 12 27.29 +11 10 33.7          17.3 R EK067H36
         K06K86Y  C2006 05 29.37671 20 12 26.82 +11 10 31.4          17.2 R EK067H36
         K06K86Y  C2006 05 29.37756 20 12 26.38 +11 10 29.4          17.7 R EK067734
         K06K86Y  C2006 05 29.37862 20 12 25.88 +11 10 27.1          17.5 R EK067H36
         K06K86Y  C2006 05 29.37912 20 12 25.58 +11 10 25.6          17.8 R EK067734
         K06K86Y  C2006 05 29.37957 20 12 25.36 +11 10 24.7          17.2 R EK067H36
         K06K86Y  C2006 05 29.44886 20 11 50.83 +11 07 42.1          17.7 R EK067854
         K06K86Y  C2006 05 29.45067 20 11 49.86 +11 07 37.9          17.6 R EK067854
    
    Observer details:
    704 Lincoln Laboratory ETS, New Mexico.  Observers M. Bezpalko, L. Manguso,
        D. Torres, R. Kracke, M. Blythe, H. Love, G. Spitz.  Measurers J. Stuart,
        J. Kommers.  1.0-m f/2.15 reflector + CCD.
    734 Farpoint Observatory.  Observer D. Tibbets.  0.7-m reflector + CCD.
    854 Sabino Canyon Observatory, Tucson.  Observer J. E. McGaha.  0.36-m f/10.0
        Schmidt-Cassegrain + CCD.
    932 John J. McCarthy Obs., New Milford.  Observers J. Reynolds, M. Robson.
        Measurer J. Reynolds.  0.4-m f/6.5 Schmidt-Cassegrain + CCD.
    H06 New Mexico Skies Observatory.  Observer R. Hutsebaut.  0.25-m reflector
        + CCD.
    H36 Sandlot Observatory, Scranton.  Observer G. Hug.  0.30-m
        Schmidt-Cassegrain + CCD.
    I77 CEAMIG-REA Observatory, Belo Horizonte.  Observers C. Jacques, E. Pimentel.
        Measurer C. Jacques.  0.30-m f/3.0 Schmidt-Cassegrain + CCD.
    J95 Great Shefford.  Observer P. Birtwhistle.  0.40-m f/6.0 Schmidt-Cassegrain
        + CCD.
    
    Orbital elements:
    2006 KY86                                           PHA, Earth MOID = 0.0474 AU
    Epoch 2006 Mar. 6.0 TT = JDT 2453800.5                  MPC
    M 349.87408              (2000.0)            P               Q
    n   0.28557106     Peri.  320.59912     -0.99418989     +0.06247077
    a   2.2838098      Node   223.23240     -0.03248573     -0.95052001
    e   0.6488316      Incl.    7.35259     -0.10262133     -0.30431747
    P   3.45           H   19.8           G   0.15           U   8
    Residuals in seconds of arc
    060526 704  0.1+  0.1-    060528 I77  0.0   0.5-    060528 704  0.3-  0.9+
    060526 704  0.2+  0.1+    060528 I77  0.2+  0.2+    060528 704  0.1-  0.3+
    060526 704  0.1+  0.3+    060528 I77  0.8+  0.1-    060529 734  0.5-  0.1+
    060526 704  0.4-  0.0     060528 H06  0.2-  0.4+    060529 H36  0.4-  0.3-
    060528 J95  0.1+  0.3-    060528 H06  0.1+  0.0     060529 H36  0.1-  0.3-
    060528 J95  0.2-  0.3-    060528 H06  0.6+  0.5-    060529 734  0.4-  0.1-
    060528 J95  0.3-  0.2+    060528 704  0.2+  0.7+    060529 H36  0.5+  0.1+
    060528 J95  0.0   0.0     060528 704  0.3+  0.2+    060529 734  0.4-  0.1-
    060528 932  0.0   0.1-    060528 704  0.0   0.8+    060529 H36  0.0   0.0
    060528 932  0.2-  0.1-    060528 704  0.9+  0.9+    060529 854  0.7+  0.1-
    060528 932  0.2-  0.2-    060528 704  1.6-  1.8+    060529 854  0.1+  0.1+
    
    Ephemeris:
    2006 KY86                a,e,i = 2.28, 0.65, 7                   q = 0.8020
    Date    TT    R. A. (2000) Decl.     Delta      r     Elong.  Phase     V
    2006 05 25    20 55.83   +14 29.0    0.115    1.040   100.6    73.1    17.7
    2006 06 04    19 34.90   +07 50.2    0.173    1.131   129.0    44.2    18.0
    2006 06 14    18 54.33   +03 30.6    0.245    1.227   146.0    27.6    18.4
    2006 06 24    18 30.42   +00 14.4    0.329    1.323   155.8    18.3    18.9
    2006 07 04    18 16.00   -02 29.4    0.426    1.420   157.8    15.7    19.6
    2006 07 14    18 08.30   -04 49.7    0.537    1.516   153.5    17.4    20.3
    2006 07 24    18 05.61   -06 50.4    0.662    1.610   146.6    20.3    20.9
    2006 08 03    18 06.87   -08 33.7    0.801    1.703   139.0    23.0    21.6
    
    Gareth V. Williams           (C) Copyright 2006 MPC           M.P.E.C. 2006-K67
    

    Read MPEC 2006-K66 Read MPEC 2006-K68


    MPEC number:

    Enter an MPEC number in one of the following forms:

    • 1997-B01 (the full form)
    • J97B01 (the packed version of the full form)
    • B01 (the abbreviated form)